Piedmont Triad International Airport
KGSO : now visible

Airfield :











YOU CAN JOIN US ON...

 
LOGIN :

Register | Disclaimer

   EN    FR    IT 

 









Legend :    VFR   Marginal VFR   IFR   Intensive IFR   Very Intensive IFR
Visi :
Ceiling :
>= 8 km
>= 3000ft
5 to 8 km
1000 to 3000 ft
1500m to 5 km
500 to 1000 ft
800 to 1500m
200 to 500 ft
< 800m
< 200 ft
Symbols :   Thunderstorms  Fog  Heavy snow  Heavy precipitations  Wind > 20 kt







- Airport Elevation : 925 ft
- IATA code : GSO


KGSO - Piedmont Triad International

CURRENT METAR :
  • 240154Z 00000KT 10SM BKN250 19/18 A2996 RMK AO2 SLP138 T01890183

EXPIRED METARs :
  • 240054Z 00000KT 10SM FEW060 BKN200 BKN250 19/18 A2996 RMK AO2 SLP136 T01890183
  • 232354Z 01004KT 10SM FEW007 FEW060 BKN200 OVC250 19/18 A2994 RMK AO2 SLP129 60017 T01940183 10200 20178 51004

TAF KGSO
Valid from the 24 at 00:00 until the 25 at 00:00 UTC


232335Z 2400/2424 02006KT P6SM SCT070 BKN250
FM241300 03009KT P6SM SCT050
KZTL FIR / North America



MET'MAP, your aeronautical weather chart ! - Copyright ORBIFLY December 2007 - Disclaimer

ORBIFLY MET'MAP TEAM :

Programming & Development : Alexandra Zaïnal
Concept & Development : Baudouin d'Aumeries
Co-Development & Prog : Marc-Olivier Méhu
Technical & hardware support : Manuel Goepfert

Contact : metmap@orbifly.com




SOURCES & CREDITS :

   NOAA       Earth
Advisory